CW0028 Weather Reports


time (UTC)temp
C
wind
direction
speed
KPH
gust
KPH
rain 1hr
cm
rain 24hr
cm
rain mn
cm
humidity
%
barometer
mb
20260504202519 19 175 9.7 24.1 0.00 0.00 0.00 37 1010.3
20260504202055 20 119 8.0 24.1 0.00 0.00 0.00 38 1010.3
20260504201607 20 202 6.4 25.7 0.00 0.00 0.00 37 1010.4
20260504201002 20 114 8.0 25.7 0.00 0.00 0.00 36 1010.5
20260504200507 20 227 9.7 24.1 0.00 0.00 0.00 36 1010.5
20260504200053 20 78 6.4 22.5 0.00 0.00 0.00 37 1010.5
20260504195556 20 219 8.0 22.5 0.00 0.00 0.00 35 1010.4
20260504195017 20 81 11.3 25.7 0.00 0.00 0.00 35 1010.5
20260504194603 20 159 11.3 24.1 0.00 0.00 0.00 34 1010.5
20260504194018 20 131 6.4 24.1 0.00 0.00 0.00 35 1010.6
20260504193554 20 190 8.0 29.0 0.00 0.00 0.00 34 1010.6
20260504193059 21 126 14.5 29.0 0.00 0.00 0.00 32 1010.8
20260504192502 21 129 6.4 27.4 0.00 0.00 0.00 34 1010.7
20260504192006 21 181 6.4 25.7 0.00 0.00 0.00 32 1010.8
20260504191509 21 155 11.3 30.6 0.00 0.00 0.00 32 1010.8
20260504191053 21 123 6.4 30.6 0.00 0.00 0.00 32 1010.7
20260504190600 21 163 11.3 24.1 0.00 0.00 0.00 33 1010.8
20260504190005 21 167 8.0 19.3 0.00 0.00 0.00 32 1010.8
20260504185506 21 115 6.4 29.0 0.00 0.00 0.00 31 1010.7
20260504185010 21 179 9.7 29.0 0.00 0.00 0.00 30 1010.8
20260504184602 22 180 11.3 25.7 0.00 0.00 0.00 28 1010.9
20260504184058 21 240 8.0 32.2 0.00 0.00 0.00 29 1010.9
20260504183600 21 172 11.3 24.1 0.00 0.00 0.00 29 1010.8
20260504183003 21 254 8.0 25.7 0.00 0.00 0.00 28 1011.0
20260504182510 20 41 11.3 25.7 0.00 0.00 0.00 28 1011.0
20260504182011 20 123 9.7 24.1 0.00 0.00 0.00 28 1011.0
20260504181555 20 111 6.4 30.6 0.00 0.00 0.00 29 1011.1
20260504181018 20 180 8.0 30.6 0.00 0.00 0.00 28 1011.3
20260504180556 20 220 11.3 29.0 0.00 0.00 0.00 30 1011.1
20260504180019 20 169 11.3 29.0 0.00 0.00 0.00 27 1011.2
20260504175554 20 104 11.3 35.4 0.00 0.00 0.00 28 1011.2
20260504175059 21 134 8.0 25.7 0.00 0.00 0.00 29 1011.2
20260504174518 20 259 4.8 27.4 0.00 0.00 0.00 28 1011.3
20260504174055 20 159 9.7 24.1 0.00 0.00 0.00 30 1011.2
20260504173603 20 90 9.7 22.5 0.00 0.00 0.00 30 1011.4
20260504173011 20 233 8.0 22.5 0.00 0.00 0.00 29 1011.3
20260504172506 20 76 12.9 22.5 0.00 0.00 0.00 28 1011.4
20260504172009 20 192 4.8 22.5 0.00 0.00 0.00 31 1011.4
20260504171554 20 234 8.0 22.5 0.00 0.00 0.00 31 1011.7
20260504171016 20 298 8.0 25.7 0.00 0.00 0.00 29 1011.8
20260504170556 20 150 12.9 24.1 0.00 0.00 0.00 29 1011.8
20260504151056 18 131 14.5 33.8 0.00 0.00 0.00 27 1013.1
20260504150600 18 203 6.4 29.0 0.00 0.00 0.00 29 1013.2
20260504141022 17 192 8.0 20.9 0.00 0.00 0.00 33 1013.4
20260504140554 17 150 8.0 25.7 0.00 0.00 0.00 36 1013.4
20260504130552 15 267 9.7 22.5 0.00 0.00 0.00 39 1014.0
20260504110502 7 232 1.6 9.7 0.00 0.00 0.00 57 1014.3
20260504100502 6 112 1.6 9.7 0.00 0.00 0.00 53 1014.1
20260504081556 6 140 3.2 9.7 0.00 0.00 0.00 53 1013.4
20260504081058 6 180 1.6 6.4 0.00 0.00 0.00 53 1013.4
20260504080503 6 167 0.0 6.4 0.00 0.00 0.00 54 1013.4
20260504060106 5 196 3.2 12.9 0.00 0.00 0.00 58 1013.0
20260504050558 5 158 0.0 4.8 0.00 0.00 0.00 58 1012.8
20260504050004 5 248 1.6 4.8 0.00 0.00 0.00 58 1013.0
20260504045507 5 150 1.6 6.4 0.00 0.00 0.00 58 1012.9
20260504045053 5 205 1.6 6.4 0.00 0.00 0.00 57 1012.9
20260504044556 5 136 0.0 3.2 0.00 0.00 0.00 57 1012.9
20260504044002 5 229 0.0 8.0 0.00 0.00 0.00 57 1012.9
20260504043504 5 229 1.6 8.0 0.00 0.00 0.00 57 1012.8
20260504043010 5 180 0.0 1.6 0.00 0.00 0.00 57 1012.7
20260504042510 5 180 0.0 3.2 0.00 0.00 0.00 57 1012.8
20260504042051 5 180 0.0 3.2 0.00 0.00 0.00 57 1012.7
20260504041555 5 180 0.0 1.6 0.00 0.00 0.00 57 1012.7
20260504041020 5 180 0.0 3.2 0.00 0.00 0.00 57 1012.7
20260504040556 5 180 0.0 3.2 0.00 0.00 0.00 57 1012.6
20260504040103 5 180 0.0 3.2 0.00 0.00 0.00 58 1012.6
20260504035507 5 180 0.0 3.2 0.00 0.00 0.00 58 1012.6
20260504035010 5 180 0.0 3.2 0.00 0.00 0.00 58 1012.6
20260504034604 5 278 0.0 0.0 0.00 0.00 0.00 58 1012.6
20260504034056 5 278 0.0 0.0 0.00 0.00 0.00 58 1012.6
20260504033501 5 278 0.0 0.0 0.00 0.00 0.00 58 1012.5
20260504033003 5 278 0.0 0.0 0.00 0.00 0.00 58 1012.5
20260504032509 5 278 0.0 0.0 0.00 0.00 0.00 58 1012.5
20260504032012 5 278 0.0 0.0 0.00 0.00 0.00 58 1012.5
20260504031606 5 278 0.0 0.0 0.00 0.00 0.00 57 1012.6
20260504031056 5 278 0.0 0.0 0.00 0.00 0.00 57 1012.5
20260504030502 6 278 0.0 0.0 0.00 0.00 0.00 57 1012.5
20260504030008 6 278 0.0 0.0 0.00 0.00 0.00 56 1012.4
20260504025551 6 278 0.0 0.0 0.00 0.00 0.00 56 1012.4
20260504025057 6 278 0.0 0.0 0.00 0.00 0.00 55 1012.4
20260504024526 6 278 0.0 0.0 0.00 0.00 0.00 55 1012.4
20260504024055 6 278 0.0 0.0 0.00 0.00 0.00 54 1012.5
20260504023557 6 278 0.0 0.0 0.00 0.00 0.00 54 1012.5
20260504023003 6 278 0.0 0.0 0.00 0.00 0.00 53 1012.5
20260504022505 6 278 0.0 0.0 0.00 0.00 0.00 53 1012.6
20260504022010 6 278 0.0 0.0 0.00 0.00 0.00 52 1012.6
20260504021556 7 278 0.0 0.0 0.00 0.00 0.00 52 1012.6
20260504021057 7 278 0.0 0.0 0.00 0.00 0.00 51 1012.6
20260504020504 7 278 0.0 0.0 0.00 0.00 0.00 51 1012.6
20260504020009 7 278 0.0 0.0 0.00 0.00 0.00 50 1012.6
20260504015056 7 278 0.0 0.0 0.00 0.00 0.00 49 1012.5
20260504014600 7 278 0.0 0.0 0.00 0.00 0.00 49 1012.5
20260504014003 8 278 0.0 0.0 0.00 0.00 0.00 48 1012.5
20260504013506 8 278 0.0 0.0 0.00 0.00 0.00 47 1012.4
20260504013010 8 278 0.0 0.0 0.00 0.00 0.00 47 1012.4
20260504012551 8 278 0.0 0.0 0.00 0.00 0.00 46 1012.2
20260504012056 8 278 0.0 0.0 0.00 0.00 0.00 45 1012.1
20260504011517 9 278 0.0 0.0 0.00 0.00 0.00 45 1012.2
20260504011013 9 278 0.0 0.0 0.00 0.00 0.00 44 1012.0
20260504010555 9 278 0.0 0.0 0.00 0.00 0.00 43 1012.0
20260504010058 10 278 0.0 0.0 0.00 0.00 0.00 42 1011.9
20260504005518 10 278 0.0 0.0 0.00 0.00 0.00 41 1011.8
20260504005053 10 278 0.0 0.0 0.00 0.00 0.00 41 1011.8
20260504004558 10 278 0.0 0.0 0.00 0.00 0.00 39 1011.8
20260504004002 10 278 0.0 0.0 0.00 0.00 0.00 39 1011.7
20260504003505 10 278 0.0 0.0 0.00 0.00 0.00 38 1011.7
20260504003006 11 278 0.0 0.0 0.00 0.00 0.00 37 1011.6
20260504002509 11 278 0.0 0.0 0.00 0.00 0.00 36 1011.5
20260504002054 11 278 0.0 0.0 0.00 0.00 0.00 35 1011.5
20260504001518 11 278 0.0 1.6 0.00 0.00 0.00 36 1011.3
20260504001058 11 278 0.0 1.6 0.00 0.00 0.00 35 1011.4
20260504000600 12 278 0.0 1.6 0.00 0.00 0.00 34 1011.3
20260504000005 12 278 0.0 1.6 0.00 0.00 0.00 33 1011.2
20260503235508 12 278 0.0 4.8 0.00 0.00 0.00 33 1011.2
20260503235054 12 278 0.0 4.8 0.00 0.00 0.00 32 1011.2
20260503234557 12 279 0.0 4.8 0.00 0.00 0.00 32 1011.2
20260503234017 12 279 1.6 11.3 0.00 0.00 0.00 30 1011.1
20260503233553 12 306 3.2 11.3 0.00 0.00 0.00 29 1010.9
20260503233100 13 294 1.6 11.3 0.00 0.00 0.00 27 1011.0
20260503232520 13 221 3.2 9.7 0.00 0.00 0.00 29 1010.9
20260503232055 13 250 3.2 12.9 0.00 0.00 0.00 27 1011.0
20260503231520 13 272 4.8 12.9 0.00 0.00 0.00 27 1010.8
20260503231019 13 261 3.2 9.7 0.00 0.00 0.00 26 1010.8
20260503230556 13 315 3.2 12.9 0.00 0.00 0.00 25 1010.7
20260503230059 13 291 4.8 14.5 0.00 0.00 0.00 25 1010.7
20260503225518 13 225 3.2 12.9 0.00 0.00 0.00 25 1010.6
20260503225054 13 313 4.8 12.9 0.00 0.00 0.00 24 1010.5
20260503224559 13 225 3.2 17.7 0.00 0.00 0.00 25 1010.6
20260503224001 13 311 9.7 17.7 0.00 0.00 0.00 25 1010.6
20260503223507 13 330 4.8 22.5 0.00 0.00 0.00 23 1010.6
20260503223009 13 34 9.7 27.4 0.00 0.00 0.00 22 1010.6
20260503222550 13 293 6.4 27.4 0.00 0.00 0.00 22 1010.5
20260503222054 13 355 9.7 19.3 0.00 0.00 0.00 22 1010.4
20260503221519 13 127 4.8 22.5 0.00 0.00 0.00 22 1010.5
20260503221016 14 296 8.0 25.7 0.00 0.00 0.00 22 1010.5
20260503220554 14 319 14.5 29.0 0.00 0.00 0.00 21 1010.5
20260503220022 14 355 9.7 29.0 0.00 0.00 0.00 25 1010.5
20260503215557 14 259 12.9 27.4 0.00 0.00 0.00 23 1010.6
20260503215057 14 5 6.4 27.4 0.00 0.00 0.00 24 1010.6
20260503214503 14 296 8.0 24.1 0.00 0.00 0.00 23 1010.5
20260503214004 14 30 8.0 24.1 0.00 0.00 0.00 24 1010.5
20260503213508 14 273 9.7 24.1 0.00 0.00 0.00 24 1010.4
20260503213053 14 296 6.4 20.9 0.00 0.00 0.00 23 1010.3
20260503212556 14 283 12.9 22.5 0.00 0.00 0.00 25 1010.3
20260503212100 14 214 6.4 24.1 0.00 0.00 0.00 23 1010.4
20260503211504 14 329 6.4 19.3 0.00 0.00 0.00 25 1010.4
20260503211008 14 328 1.6 17.7 0.00 0.00 0.00 26 1010.4
20260503210551 14 315 6.4 20.9 0.00 0.00 0.00 24 1010.4
20260503210057 14 205 9.7 27.4 0.00 0.00 0.00 23 1010.3
20260503205519 14 210 8.0 32.2 0.00 0.00 0.00 23 1010.3
20260503205057 14 229 12.9 32.2 0.00 0.00 0.00 21 1010.3
20260503204558 14 223 9.7 33.8 0.00 0.00 0.00 23 1010.4
20260503204001 14 209 6.4 32.2 0.00 0.00 0.00 23 1010.3
20260503203508 14 294 12.9 29.0 0.00 0.00 0.00 24 1010.3
20260503203008 14 300 8.0 27.4 0.00 0.00 0.00 24 1010.3
20260503202553 14 296 12.9 35.4 0.00 0.00 0.00 23 1010.4